Astrometry: M001S S2004 11 16.59850608 32 43.82 -32.67340 x MEx M001S s2004 11 16.5985061 - 1389.5400 -11518.0800 + 604.1700 MEx M001S S2004 11 16.59862008 32 48.79 -32.99300 x MEx M001S s2004 11 16.5986201 - 1380.8500 -11511.1900 + 614.5100 MEx M001S S2004 12 14.33690810 07 08.49 -24.83950 x MEx M001S s2004 12 14.3369081 - 1684.9200 - 9666.0100 + 392.2000 MEx M001S S2004 12 14.33695910 07 29.25 -25.02070 x MEx M001S s2004 12 14.3369591 - 1679.9600 - 9661.8500 + 397.6200 MEx M001S S2004 12 14.33701610 07 54.64 -25.22210 x MEx M001S s2004 12 14.3370161 - 1674.3800 - 9657.1800 + 403.7100 MEx M001S S2005 09 16.97524620 46 33.28 +28.35370 x MEx M001S s2005 09 16.9752461 + 4633.2500 + 9039.9800 - 2289.9000 MEx M001S S2005 11 20.37939622 09 00.86 -32.95320 MEx M001S s2005 11 20.3793961 + 5460.8900 + 5823.4500 - 229.6200 MEx M001S S2005 11 20.37945322 09 54.45 -32.75750 MEx M001S s2005 11 20.3794531 + 5451.5800 + 5822.6700 - 236.7600 MEx M001S S2005 11 24.86037802 01 28.92 +03.18520 MEx M001S s2005 11 24.8603781 + 5108.9900 + 5581.5100 - 394.0600 MEx M001S S2005 11 24.86041602 01 49.84 +03.44500 MEx M001S s2005 11 24.8604161 + 5102.4200 + 5580.8500 - 398.9600 MEx M001S S2005 12 08.57222603 10 50.90 -20.33720 MEx M001S s2005 12 8.5722261 + 5591.3700 + 4984.1100 + 296.9800 MEx M001S S2005 12 08.57227003 10 56.37 -19.99000 MEx M001S s2005 12 8.5722701 + 5584.0200 + 4984.5000 + 290.6900 MEx M001S S2005 12 13.33531422 45 39.16 -33.13880 MEx M001S s2005 12 13.3353141 + 4781.0200 + 4797.3100 - 265.4800 MEx M001S S2005 12 13.33537122 46 19.77 -32.93790 MEx M001S s2005 12 13.3353711 + 4770.3100 + 4797.0100 - 273.8200 MEx M001S S2005 12 20.05216202 52 34.48 -12.94790 MEx M001S s2005 12 20.0521621 + 5064.0700 + 4532.2300 + 98.6000 MEx M001S S2005 12 20.05219302 52 36.79 -12.75150 MEx M001S s2005 12 20.0521931 + 5058.3300 + 4532.5700 + 93.7400 MEx M001S S2005 12 20.05222502 52 39.00 -12.55570 MEx M001S s2005 12 20.0522251 + 5052.5900 + 4532.9000 + 88.8900 MEx M001S S2005 12 20.05225002 52 41.42 -12.40010 MEx M001S s2005 12 20.0522501 + 5047.9900 + 4533.1600 + 85.0100 MEx M001S S2006 01 20.96369506 59 38.61 +00.83640 MEx M001S s2006 01 20.9636951 + 5889.1600 + 2962.3000 + 1718.9000 MEx M001S S2006 01 20.96377006 59 41.90 +01.06780 MEx M001S s2006 01 20.9637701 + 5878.6200 + 2968.2600 + 1705.5400 MEx M001S S2006 01 20.96383706 59 42.12 +01.28100 MEx M001S s2006 01 20.9638371 + 5869.3300 + 2973.4900 + 1693.7800 MEx M001S S2006 02 01.72664502 03 47.35 -53.20450 MEx M001S s2006 02 1.7266451 + 5561.5800 + 2618.3000 + 1651.1800 MEx M001S S2006 02 01.72671502 03 47.64 -52.98840 MEx M001S s2006 02 1.7267151 + 5551.8600 + 2624.6400 + 1638.1300 MEx M001S S2006 02 01.72677802 03 42.84 -52.79100 MEx M001S s2006 02 1.7267781 + 5542.9900 + 2630.3900 + 1626.2600 MEx M001S S2006 02 10.19468811 58 10.17 -31.28770 MEx M001S s2006 02 10.1946881 - 5357.8000 - 6051.7200 + 1834.8900 MEx M001S S2006 02 10.19473211 58 02.59 -31.59240 MEx M001S s2006 02 10.1947321 - 5356.7000 - 6057.6700 + 1841.3000 MEx M001S S2006 02 28.68382909 32 26.83 -00.69780 MEx M001S s2006 02 28.6838291 - 6359.9100 - 6183.4000 + 1568.5700 MEx M001S S2006 02 28.68388009 32 13.32 -01.07750 MEx M001S s2006 02 28.6838801 - 6359.4700 - 6189.8900 + 1575.1800 MEx M001S S2006 03 05.46221707 51 06.28 -18.13180 MEx M001S s2006 03 5.4622171 - 6269.3900 - 7899.3500 + 3395.0700 MEx M001S S2006 03 05.46229307 51 08.92 -18.36300 MEx M001S s2006 03 5.4622931 - 6266.4800 - 7906.1900 + 3403.7800 MEx M001S S2006 03 19.17990906 52 04.27 -09.74580 MEx M001S s2006 03 19.1799091 - 7415.8400 - 6925.5100 + 1940.3600 MEx M001S S2006 03 19.17995306 51 52.00 -10.03440 MEx M001S s2006 03 19.1799531 - 7415.3800 - 6930.2500 + 1945.4000 MEx M001S S2006 03 19.17999706 51 34.51 -10.31840 MEx M001S s2006 03 19.1799971 - 7414.9200 - 6934.9900 + 1950.4400 MEx M001S S2006 03 21.41593306 04 30.55 -05.87460 MEx M001S s2006 03 21.4159331 - 7574.9600 - 6345.2300 + 1300.8100 MEx M001S S2006 03 21.41595806 03 59.59 -06.26680 MEx M001S s2006 03 21.4159581 - 7575.0300 - 6348.1800 + 1303.7200 MEx M001S S2006 03 21.41598906 03 18.43 -06.74440 MEx M001S s2006 03 21.4159891 - 7575.1200 - 6351.8700 + 1307.3500 MEx M001S S2006 03 30.66312204 37 33.95 -02.33740 MEx M001S s2006 03 30.6631221 - 8153.4400 - 6619.7900 + 1391.5600 MEx M001S S2006 03 30.66316604 36 57.45 -02.75330 MEx M001S s2006 03 30.6631661 - 8153.4800 - 6624.5200 + 1396.3400 MEx M001S S2006 04 18.15706303 31 05.90 +05.69810 MEx M001S s2006 04 18.1570631 - 9328.8900 - 6930.3800 + 1385.0100 MEx M001S S2006 04 18.15711303 30 42.04 +05.45850 MEx M001S s2006 04 18.1571131 - 9328.7500 - 6934.9500 + 1389.8600 MEx M001S S2006 04 18.15717003 30 17.71 +05.18520 MEx M001S s2006 04 18.1571701 - 9328.5900 - 6940.0800 + 1395.3200 MEx M001S S2006 05 06.96884605 09 57.16 -25.52930 MEx M001S s2006 05 6.9688461 - 9111.2600 - 9016.1200 + 4211.8400 MEx M001S S2006 05 06.96894005 09 52.36 -25.74990 MEx M001S s2006 05 6.9689401 - 9105.5300 - 9019.3700 + 4218.7600 MEx M001S S2006 05 06.96902905 09 47.68 -25.95100 MEx M001S s2006 05 6.9690291 - 9100.1700 - 9022.3800 + 4225.2200 MEx M001S S2006 05 13.98684805 32 13.53 -35.19590 MEx M001S s2006 05 13.9868481 - 8522.1100 - 9123.2000 + 4868.5000 MEx M001S S2006 05 13.98694905 32 14.37 -35.41990 MEx M001S s2006 05 13.9869491 - 8514.2500 - 9124.9200 + 4875.0100 MEx M001S S2006 05 13.98705405 32 15.19 -35.65650 MEx M001S s2006 05 13.9870541 - 8506.1100 - 9126.7000 + 4881.7400 MEx M001S S2006 08 07.45188608 29 02.37 -41.30390 x MEx M001S s2006 08 7.4518861 - 7808.3100 - 4938.7600 + 2442.5100 MEx M001S S2006 12 11.89159219 54 33.74 +41.04100 MEx M001S s2006 12 11.8915921 + 7549.4300 + 4383.0000 - 4444.6900 MEx M001S S2006 12 11.89166819 54 47.11 +41.49330 MEx M001S s2006 12 11.8916681 + 7548.2800 + 4390.0700 - 4455.1600 MEx M001S S2006 12 23.37120018 09 50.66 +19.49750 MEx M001S s2006 12 23.3712001 + 8285.0400 + 3689.5800 - 3521.2800 MEx M001S S2006 12 23.37122518 09 45.31 +19.87000 MEx M001S s2006 12 23.3712251 + 8285.2500 + 3692.0100 - 3524.7700 MEx M001S S2007 01 01.61931516 04 39.45 +24.91860 MEx M001S s2007 01 1.6193151 + 8879.6400 + 3814.6200 - 3792.3700 MEx M001S S2007 01 01.61935316 04 10.72 +25.29150 MEx M001S s2007 01 1.6193531 + 8879.8500 + 3817.9500 - 3797.2500 MEx M001S S2007 01 01.61938116 03 47.95 +25.60200 MEx M001S s2007 01 1.6193811 + 8880.0100 + 3820.4800 - 3800.9500 MEx M001S S2007 01 03.85430311 49 11.04 -08.19140 MEx M001S s2007 01 3.8543031 + 8920.7200 + 3203.4500 - 2933.0700 MEx M001S S2007 01 03.85434711 48 12.16 -07.32900 MEx M001S s2007 01 3.8543471 + 8921.7700 + 3207.5900 - 2938.9800 MEx M001S S2007 01 10.86575615 11 07.34 +11.12990 MEx M001S s2007 01 10.8657561 + 9470.0900 + 3724.3300 - 3770.0600 MEx M001S S2007 01 10.86580615 10 38.49 +11.49830 MEx M001S s2007 01 10.8658061 + 9470.4400 + 3728.4900 - 3776.2100 MEx M001S S2007 01 10.86585015 10 07.89 +11.80710 MEx M001S s2007 01 10.8658501 + 9470.7500 + 3732.1300 - 3781.5900 MEx M001S S2007 01 13.10149612 30 03.40 -04.38720 MEx M001S s2007 01 13.1014961 + 9526.2600 + 3216.6200 - 3055.2500 MEx M001S S2007 01 13.10153412 29 30.55 -04.04370 MEx M001S s2007 01 13.1015341 + 9527.0700 + 3219.8800 - 3060.0000 MEx M001S S2007 02 16.54491809 59 14.06 -29.56270 MEx M001S s2007 02 16.5449181 +11155.8200 + 1600.8200 - 1196.1200 MEx M001S S2007 02 16.54498709 59 03.67 -29.33090 MEx M001S s2007 02 16.5449871 +11159.1400 + 1605.8500 - 1203.6200 MEx M001S S2007 02 16.54505009 58 54.19 -29.11740 MEx M001S s2007 02 16.5450501 +11162.1500 + 1610.4100 - 1210.4300 MEx M001S S2007 02 25.11402821 23 16.84 +01.80020 MEx M001S s2007 02 25.1140281 - 1897.6700 + 3628.2200 - 5936.1000 MEx M001S S2007 02 25.11411021 23 51.57 +01.75160 MEx M001S s2007 02 25.1141101 - 1909.8900 + 3620.1800 - 5924.5900 MEx M001S S2007 02 25.11419821 24 28.77 +01.69420 MEx M001S s2007 02 25.1141981 - 1923.0300 + 3611.5100 - 5912.1600 MEx M001S S2007 02 25.11428021 25 02.90 +01.63560 MEx M001S s2007 02 25.1142801 - 1935.2300 + 3603.4300 - 5900.5800 MEx Station data: (MEx) Mars Express. Orbital elements: Mars I Perimars 2007 Jan 23.075168 +/- 0.000119 TT = 1:48:14 (JD 2454123.575168) Epoch 2007 Jan 23.0 TT = JDT 2454123.5 Find_Orb M 275.21244 +/- 0.13 n1127.97200456 +/- 0.000232 Peri. 300.52760 +/- 0.13 a 9378.54995 +/- 0.00129 Node 125.70266 +/- 0.007 e 0.0152798 +/- 2.35e-5 Incl. 1.07097 +/- 0.0010 P 459.58m U 7.1 q 9235.24739 +/- 0.22 Q 9521.85252 +/- 0.22 62 of 69 observations 2005 Nov. 20-2007 Feb. 25; mean residual 312".355. Residuals in arcseconds: 041116 MEx(67.0+ 335+) 060201 MEx 438- 192- 060513 MEx 20.3+ 58.1+ 041116 MEx(74.1+ 343+) 060210 MEx 221- 274+ 060807 MEx( 375- 434+) 041214 MEx(48.8- 478+) 060210 MEx 233- 250+ 061211 MEx 65.5+ 86.9+ 041214 MEx(76.4- 479+) 060228 MEx 163- 152+ 061211 MEx 54.9+ 76.1+ 041214 MEx(79.8- 485+) 060228 MEx 178- 175+ 061223 MEx 114- 277+ 050916 MEx(84.9- 358-) 060305 MEx 34.6- 104+ 061223 MEx 22.8- 238+ 051120 MEx 402- 35.8- 060305 MEx 39.4- 109+ 070101 MEx 168- 192+ 051120 MEx 393- 57.4- 060319 MEx 9.51+ 186+ 070101 MEx 189- 171+ 051124 MEx 924- 581- 060319 MEx 54.1+ 178+ 070101 MEx 230- 276+ 051124 MEx 891- 591- 060319 MEx 22.6+ 186+ 070103 MEx 517- 374+ 051208 MEx 855- 584- 060321 MEx 232+ 444+ 070103 MEx 574- 305+ 051208 MEx 843- 585- 060321 MEx 263+ 412+ 070110 MEx 154- 164+ 051213 MEx 371- 85.9- 060321 MEx 262+ 406+ 070110 MEx 147- 164+ 051213 MEx 404- 72.1- 060330 MEx 299+ 207+ 070110 MEx 214- 113+ 051220 MEx 680- 453- 060330 MEx 279+ 173+ 070113 MEx 352- 316+ 051220 MEx 672- 451- 060418 MEx 197+ 72.4+ 070113 MEx 352- 172+ 051220 MEx 678- 457- 060418 MEx 168+ 74.5+ 070216 MEx 84.9- 134+ 051220 MEx 666- 459- 060418 MEx 182+ 70.8+ 070216 MEx 101- 116+ 060120 MEx 239- 210- 060506 MEx 32.2+ 90.9+ 070216 MEx 114- 108+ 060120 MEx 202- 212- 060506 MEx 32.2+ 70.5+ 070225 MEx 34.3+ 60.2+ 060120 MEx 213- 183- 060506 MEx 34.6+ 77.2+ 070225 MEx 31.8+ 64.8+ 060201 MEx 394- 183- 060513 MEx 15.3+ 64.4+ 070225 MEx 27.6+ 51.9+ 060201 MEx 395- 189- 060513 MEx 17.0+ 68.5+ 070225 MEx 16.5+ 21.1+ Ephemerides (Mars Survey Lander = Curiosity = MSL): Date (UT) HH:MM:SS RA Dec delta r elong alt az ---- -- -- -------- ------------ ------------ ------ ------ ----- --- --- 2013 08 17 10:34:00 18 01 40.044 -24 04 58.55 9177 1.5778 3.0 +69 158 2013 08 17 10:34:10 18 02 09.482 -24 08 11.41 9172 1.5778 2.9 +69 157 2013 08 17 10:34:20 18 02 38.954 -24 11 23.96 9167 1.5778 2.8 +69 157 2013 08 17 10:34:30 18 03 08.465 -24 14 36.20 9162 1.5778 2.7 +69 157 2013 08 17 10:34:40 18 03 38.012 -24 17 48.13 9156 1.5778 2.5 +68 157 2013 08 17 10:34:50 18 04 07.599 -24 20 59.74 9151 1.5778 2.4 +68 157 2013 08 17 10:35:00 18 04 37.222 -24 24 11.04 9146 1.5778 2.3 +68 157 2013 08 17 10:35:10 18 05 06.884 -24 27 22.02 9141 1.5778 2.2 +68 157 2013 08 17 10:35:20 18 05 36.580 -24 30 32.69 9135 1.5778 2.1 +68 157 2013 08 17 10:35:30 18 06 06.316 -24 33 43.03 9130 1.5778 1.9 +68 156 2013 08 17 10:35:40 18 06 36.088 -24 36 53.06 9125 1.5778 1.8 +68 156 2013 08 17 10:35:50 18 07 05.901 -24 40 02.76 9119 1.5778 1.7 +68 156 2013 08 17 10:36:00 18 07 35.750 -24 43 12.14 9114 1.5778 1.6 +68 156 2013 08 17 10:36:10 18 08 05.639 -24 46 21.19 9109 1.5778 1.5 +68 156 2013 08 17 10:36:20 18 08 35.562 -24 49 29.91 9104 1.5778 1.4 +68 156 2013 08 17 10:36:30 18 09 05.526 -24 52 38.31 9098 1.5778 1.3 +68 156 2013 08 17 10:36:40 18 09 35.526 -24 55 46.38 9093 1.5778 1.2 +67 156 2013 08 17 10:36:50 18 10 05.568 -24 58 54.11 9088 1.5778 1.1 +67 156 2013 08 17 10:37:00 18 10 35.646 -25 02 01.51 9082 1.5778 1.0 +67 155 2013 08 17 10:37:10 18 11 05.765 -25 05 08.58 9077 1.5778 0.9 +67 155 2013 08 17 10:37:20 18 11 35.921 -25 08 15.30 9072 1.5778 0.8 +67 155 2013 08 17 10:37:30 18 12 06.113 -25 11 21.69 9067 1.5778 0.8 +67 155 2013 08 17 10:37:40 18 12 36.345 -25 14 27.74 9061 1.5778 0.7 +67 155 2013 08 17 10:37:50 18 13 06.617 -25 17 33.45 9056 1.5778 0.7 +67 155 2013 08 17 10:38:00 18 13 36.929 -25 20 38.82 9051 1.5778 0.7 +67 155 2013 08 17 10:38:10 18 14 07.281 -25 23 43.84 9045 1.5778 0.7 +67 155 2013 08 17 10:38:20 18 14 37.670 -25 26 48.51 9040 1.5778 0.8 +67 155 2013 08 17 10:38:30 18 15 08.096 -25 29 52.84 9035 1.5778 0.8 +67 154 2013 08 17 10:38:40 18 15 38.562 -25 32 56.82 9029 1.5778 0.9 +67 154 2013 08 17 10:38:50 18 16 09.069 -25 36 00.44 9024 1.5778 1.0 +66 154 2013 08 17 10:39:00 18 16 39.616 -25 39 03.72 9019 1.5778 1.1 +66 154 2013 08 17 10:39:10 18 17 10.203 -25 42 06.63 9014 1.5778 1.2 +66 154 2013 08 17 10:39:20 18 17 40.829 -25 45 09.19 9008 1.5778 1.3 +66 154 2013 08 17 10:39:30 18 18 11.492 -25 48 11.40 9003 1.5778 1.4 +66 154 2013 08 17 10:39:40 18 18 42.195 -25 51 13.24 8998 1.5778 1.5 +66 154 2013 08 17 10:39:50 18 19 12.939 -25 54 14.73 8992 1.5778 1.6 +66 154 2013 08 17 10:40:00 18 19 43.725 -25 57 15.85 8987 1.5778 1.7 +66 153 2013 08 17 10:40:10 18 20 14.551 -26 00 16.60 8982 1.5778 1.8 +66 153 2013 08 17 10:40:20 18 20 45.415 -26 03 16.99 8976 1.5778 2.0 +66 153